W2SRH Weather Reports


time (UTC)temp
C
wind
direction
speed
KPH
gust
KPH
rain 1hr
cm
rain 24hr
cm
rain mn
cm
humidity
%
barometer
mb
20260505121904 18 210 3.2 16.1 0.00 0.00 0.00 53 1002.9
20260505120905 18 255 3.2 12.9 0.00 0.00 0.00 53 1002.9
20260505115904 18 301 3.2 8.0 0.00 0.00 0.00 54 1002.8
20260505114904 18 279 3.2 12.9 0.00 0.00 0.00 55 1002.8
20260505113906 17 168 1.6 8.0 0.00 0.00 0.00 56 1002.7
20260505112904 17 234 1.6 4.8 0.00 0.00 0.00 58 1002.5
20260505111905 17 262 3.2 8.0 0.00 0.00 0.00 59 1002.6
20260505110913 17 288 1.6 6.4 0.00 0.00 0.00 59 1002.6
20260505101905 15 216 0.0 4.8 0.00 0.00 0.00 66 1002.3
20260505100910 15 168 0.0 3.2 0.00 0.00 0.00 67 1002.0
20260505095905 15 141 0.0 1.6 0.00 0.00 0.00 67 1001.9
20260505094906 15 145 0.0 1.6 0.00 0.00 0.00 68 1001.8
20260505093905 15 150 0.0 3.2 0.00 0.00 0.00 69 1001.8
20260505092904 14 147 0.0 1.6 0.00 0.00 0.00 71 1001.9
20260505091904 13 145 0.0 1.6 0.00 0.00 0.00 71 1001.8
20260505090904 13 165 0.0 3.2 0.00 0.00 0.00 71 1001.7
20260505085904 14 0 0.0 1.6 0.00 0.00 0.00 70 1001.9
20260505084903 14 0 0.0 1.6 0.00 0.00 0.00 69 1001.8
20260505083904 14 238 0.0 3.2 0.00 0.00 0.00 68 1001.8
20260505082905 15 200 0.0 1.6 0.00 0.00 0.00 67 1001.8
20260505081905 15 0 0.0 1.6 0.00 0.00 0.00 65 1001.9
20260505080904 15 0 0.0 0.0 0.00 0.00 0.00 64 1001.9
20260505075904 16 290 0.0 3.2 0.00 0.00 0.00 64 1001.9
20260505074905 15 279 0.0 3.2 0.00 0.00 0.00 64 1001.9
20260505073906 15 179 0.0 3.2 0.00 0.00 0.00 64 1001.9
20260505072905 15 147 0.0 3.2 0.00 0.00 0.00 63 1001.8
20260505071912 15 174 0.0 6.4 0.00 0.00 0.00 63 1001.8
20260505070905 15 146 0.0 3.2 0.00 0.00 0.00 63 1001.9
20260505065905 15 167 0.0 1.6 0.00 0.00 0.00 62 1001.7
20260505064905 15 157 0.0 3.2 0.00 0.00 0.00 62 1001.5
20260505063905 15 223 0.0 3.2 0.00 0.00 0.00 62 1001.6
20260505062904 15 162 0.0 3.2 0.00 0.00 0.00 63 1001.7
20260505061905 15 158 0.0 1.6 0.00 0.00 0.00 63 1001.7
20260505060904 15 152 0.0 1.6 0.00 0.00 0.00 63 1001.9
20260505055904 15 152 0.0 1.6 0.00 0.00 0.00 63 1001.7
20260505054908 15 265 0.0 3.2 0.00 0.00 0.00 63 1001.8
20260505053905 15 163 0.0 1.6 0.00 0.00 0.00 63 1001.9
20260505052904 15 161 0.0 4.8 0.00 0.00 0.00 63 1001.9
20260505051904 14 155 0.0 1.6 0.00 0.00 0.00 64 1002.0
20260505050903 14 0 0.0 1.6 0.00 0.00 0.00 64 1002.0
20260505040904 15 0 0.0 0.0 0.00 0.00 0.00 58 1002.0
20260505035904 15 154 0.0 1.6 0.00 0.00 0.00 57 1002.0
20260505034904 15 153 0.0 1.6 0.00 0.00 0.00 55 1002.1
20260505033904 15 153 0.0 1.6 0.00 0.00 0.00 54 1002.0
20260505032905 15 174 0.0 3.2 0.00 0.00 0.00 52 1002.1
20260505031905 15 170 0.0 3.2 0.00 0.00 0.00 51 1002.1
20260505030905 16 174 0.0 1.6 0.00 0.00 0.00 50 1002.2
20260505025904 16 157 0.0 3.2 0.00 0.00 0.00 49 1002.3
20260505024903 16 163 0.0 4.8 0.00 0.00 0.00 48 1002.4
20260505023903 16 163 0.0 3.2 0.00 0.00 0.00 47 1002.3
20260505022903 16 160 0.0 1.6 0.00 0.00 0.00 46 1002.3
20260505021903 17 177 1.6 4.8 0.00 0.00 0.00 45 1002.4
20260505020903 17 191 0.0 4.8 0.00 0.00 0.00 44 1002.4
20260505015908 17 165 0.0 3.2 0.00 0.00 0.00 43 1002.3
20260505014957 17 169 0.0 4.8 0.00 0.00 0.00 42 1002.3
20260505014904 17 169 0.0 4.8 0.00 0.00 0.00 42 1002.3
20260505013903 17 183 1.6 6.4 0.00 0.00 0.00 42 1002.3
20260505012903 17 162 0.0 1.6 0.00 0.00 0.00 42 1002.2
20260505011904 18 161 0.0 1.6 0.00 0.00 0.00 41 1002.1
20260505010958 18 159 0.0 3.2 0.00 0.00 0.00 40 1002.0
20260505010904 18 159 0.0 3.2 0.00 0.00 0.00 40 1002.0
20260505005905 18 153 0.0 3.2 0.00 0.00 0.00 39 1001.8
20260505004905 18 166 0.0 3.2 0.00 0.00 0.00 39 1001.6
20260505003905 19 151 0.0 3.2 0.00 0.00 0.00 37 1001.6
20260505002905 19 155 0.0 1.6 0.00 0.00 0.00 36 1001.4
20260505001904 20 135 0.0 3.2 0.00 0.00 0.00 35 1001.4
20260505000906 20 238 1.6 8.0 0.00 0.00 0.00 35 1001.3
20260504235904 20 162 0.0 1.6 0.00 0.00 0.00 34 1001.4
20260504234903 21 151 0.0 3.2 0.00 0.00 0.00 32 1001.2
20260504233904 21 216 1.6 14.5 0.00 0.00 0.00 32 1001.2
20260504232904 21 216 3.2 9.7 0.00 0.00 0.00 31 1001.1
20260504231910 21 224 3.2 8.0 0.00 0.00 0.00 31 1001.0
20260504231333 22 221 1.6 8.0 0.00 0.00 0.00 30 1001.0
20260504230903 22 273 6.4 12.9 0.00 0.00 0.00 30 1001.0
20260504225903 22 213 0.0 3.2 0.00 0.00 0.00 30 1001.1
20260504224905 22 221 1.6 8.0 0.00 0.00 0.00 30 1001.0
20260504223903 22 237 3.2 17.7 0.00 0.00 0.00 29 1001.0
20260504222904 22 277 4.8 24.1 0.00 0.00 0.00 29 1001.1
20260504221903 22 224 3.2 17.7 0.00 0.00 0.00 29 1001.1
20260504220905 22 276 4.8 14.5 0.00 0.00 0.00 29 1001.1
20260504215906 23 248 6.4 16.1 0.00 0.00 0.00 28 1001.2
20260504214905 23 212 1.6 6.4 0.00 0.00 0.00 28 1001.3
20260504213905 22 212 1.6 12.9 0.00 0.00 0.00 28 1001.3
20260504213734 23 252 1.6 9.7 0.00 0.00 0.00 28 1001.3
20260504212906 23 287 4.8 12.9 0.00 0.00 0.00 28 1001.4
20260504211905 23 252 1.6 9.7 0.00 0.00 0.00 28 1001.3
20260504210905 22 266 6.4 16.1 0.00 0.00 0.00 28 1001.4
20260504210530 22 247 3.2 9.7 0.00 0.00 0.00 28 1001.5
20260504205904 22 267 6.4 17.7 0.00 0.00 0.00 27 1001.4
20260504204938 23 258 4.8 12.9 0.00 0.00 0.00 27 1001.4
20260504204905 23 258 4.8 12.9 0.00 0.00 0.00 27 1001.4
20260504203904 22 247 3.2 9.7 0.00 0.00 0.00 28 1001.5
20260504202904 23 267 4.8 19.3 0.00 0.00 0.00 27 1001.4
20260504201903 22 176 3.2 8.0 0.00 0.00 0.00 27 1001.3
20260504200904 22 295 4.8 19.3 0.00 0.00 0.00 27 1001.6
20260504195904 22 275 6.4 19.3 0.00 0.00 0.00 27 1001.6
20260504194904 22 274 8.0 17.7 0.00 0.00 0.00 27 1001.6
20260504193903 22 286 4.8 12.9 0.00 0.00 0.00 27 1001.7
20260504192909 22 249 3.2 9.7 0.00 0.00 0.00 27 1001.8
20260504191905 22 260 4.8 17.7 0.00 0.00 0.00 27 1001.9
20260504190905 22 249 6.4 14.5 0.00 0.00 0.00 27 1002.0
20260504185905 22 211 3.2 14.5 0.00 0.00 0.00 27 1002.0
20260504184904 22 211 3.2 14.5 0.00 0.00 0.00 27 1002.5
20260504183905 22 254 4.8 12.9 0.00 0.00 0.00 27 1002.4
20260504182905 21 274 4.8 17.7 0.00 0.00 0.00 27 1002.6
20260504181905 22 280 6.4 17.7 0.00 0.00 0.00 27 1002.8
20260504180904 22 194 1.6 8.0 0.00 0.00 0.00 28 1002.8
20260504175904 21 277 4.8 16.1 0.00 0.00 0.00 27 1003.0
20260504174906 21 244 8.0 20.9 0.00 0.00 0.00 27 1003.2
20260504173903 21 285 6.4 20.9 0.00 0.00 0.00 28 1003.2
20260504172906 21 231 4.8 14.5 0.00 0.00 0.00 29 1003.4
20260504171904 20 270 3.2 22.5 0.00 0.00 0.00 30 1003.5
20260504170907 20 254 3.2 17.7 0.00 0.00 0.00 31 1003.6
20260504150904 18 235 3.2 20.9 0.00 0.00 0.00 38 1005.0
20260504140904 16 171 1.6 14.5 0.00 0.00 0.00 49 1005.3